AEROCUBE 10C (PROBE) (45174 NORAD) Tracking and Keplerian Element Data

This shows tracking and keplerian element data for the satellite.

Feedback or suggestion? Click here.




ElementValue
Catalog45174
NameAEROCUBE 10C (PROBE)
Epoch Orbit49
Epoch Day46.88317028
Epoch Year2020
RAAN262.8355
Inclination51.6412
Eccentricity0.0010784
Argument of Perigee226.6893
Mean Anonmoly133.2962
Mean Motion15.30110936
Decay Rate0.0002874
L11 45174U 19022L 20046.88317028 .00028740 00000-0 97893-3 0 9994
L22 45174 51.6412 262.8355 0010784 226.6893 133.2962 15.30110936 497

Live tracking and technical data element details for AEROCUBE 10C (PROBE) (NORAD 45174). AEROCUBE 10C (PROBE) can be tracked NOW for your location showing map with azimuth and elevation plus other details from your city location.

Track the satellite on the map from your city or location and see movement details for azimuth, elevation, latitude, longitude, range, height, and movement on the map or in text.







IsCatalogInMostPopularTable: catalog: 45174, numindb: -1

Insert: records affected: 1


GetName: 45174 AEROCUBE 10C (PROBE)

Hit Count: inserted at: Tue, 18 Feb 2020 00:17:33 GMT